Marshall, TX

7:04 PM CDT on October 20, 2017 (GMT -0500)
Harrison County

Weather History for KASL - December, 2012

Change the Weather History Date:

Tuesday, December 18, 2012

  Actual Average (KGGG) Record (KGGG)
Temperature  
Mean Temperature 54 °F -  
Max Temperature 75 °F 55 °F 78 °F (2012)
Min Temperature 32 °F 34 °F 20 °F (1964)
Degree Days  
Heating Degree Days 12    
Growing Degree Days 4 (Base 50)    
Moisture  
Dew Point 38 °F    
Average Humidity 63    
Maximum Humidity 100    
Minimum Humidity 22    
Precipitation  
Precipitation 0.00 in - - ()
Sea Level Pressure  
Sea Level Pressure 29.88 in    
Wind  
Wind Speed 3 mph (South)    
Max Wind Speed 13 mph    
Max Gust Speed 21 mph    
Visibility 9 miles    
Events      
Averages and records for this station are not official NWS values.
T = Trace of Precipitation, MM = Missing Value Source: NWS Daily Summary

Daily Weather History Graph

Daily Weather History Graph

Search for Another Location

Airport or City:

Trip Planner

Search our weather history database for the weather conditions in past years. The results will help you decide how hot, cold, wet, or windy it might be!

Date:

Astronomy

Dec. 18, 2012 Rise Set
Actual Time 7:13 AM CST 5:14 PM CST
Civil Twilight 6:46 AM CST 5:41 PM CST
Nautical Twilight 6:15 AM CST 6:12 PM CST
Astronomical Twilight 5:45 AM CST 6:42 PM CST
Moon 11:11 AM CST (12/18) 11:21 PM CST (12/18)
Length of Visible Light 10h 55m
Length of Day
10h 00m
Waxing Crescent, 35% of the Moon is Illuminated
Dec 18
Waxing Crescent
Dec 19
First Quarter
Dec 28
Full
Jan 4
Last Quarter
Jan 11
New

Hourly Weather History & Observations

Time (CST) Temp. Windchill Dew Point Humidity Pressure Visibility Wind Dir Wind Speed Gust Speed Precip Events Conditions
12:15 AM 35.6 °F - 33.8 °F 93% 29.92 in 7.0 mi Calm Calm - N/A   Overcast
12:35 AM 35.6 °F - 33.8 °F 93% 29.91 in 7.0 mi Calm Calm - N/A   Overcast
12:55 AM 35.6 °F - 33.8 °F 93% 29.91 in 7.0 mi Calm Calm - N/A   Overcast
1:15 AM 35.6 °F - 33.8 °F 93% 29.91 in 7.0 mi Calm Calm - N/A   Mostly Cloudy
1:35 AM 35.6 °F - 33.8 °F 93% 29.90 in 7.0 mi Calm Calm - N/A   Clear
1:55 AM 35.6 °F - 33.8 °F 93% 29.90 in 7.0 mi Calm Calm - N/A   Clear
2:15 AM 35.6 °F - 33.8 °F 93% 29.91 in 7.0 mi Calm Calm - N/A   Clear
2:35 AM 35.6 °F - 33.8 °F 93% 29.91 in 5.0 mi Calm Calm - N/A   Clear
2:55 AM 35.6 °F - 33.8 °F 93% 29.90 in 7.0 mi Calm Calm - N/A   Clear
3:15 AM 32.0 °F - 32.0 °F 100% 29.89 in 10.0 mi Calm Calm - N/A   Clear
3:35 AM 35.6 °F - 33.8 °F 93% 29.89 in 7.0 mi Calm Calm - N/A   Clear
3:55 AM 35.6 °F - 33.8 °F 93% 29.89 in 5.0 mi Calm Calm - N/A   Clear
4:15 AM 35.6 °F - 33.8 °F 93% 29.89 in 5.0 mi Calm Calm - N/A   Clear
4:35 AM 35.6 °F - 33.8 °F 93% 29.89 in 5.0 mi Calm Calm - N/A   Clear
5:15 AM 35.6 °F - 33.8 °F 93% 29.89 in 5.0 mi Calm Calm - N/A   Clear
5:35 AM 35.6 °F - 33.8 °F 93% 29.89 in 4.0 mi Calm Calm - N/A   Clear
6:15 AM 35.6 °F - 33.8 °F 93% 29.89 in 5.0 mi Calm Calm - N/A   Clear
6:35 AM 35.6 °F - 33.8 °F 93% 29.90 in 7.0 mi Calm Calm - N/A   Clear
6:55 AM 35.6 °F - 33.8 °F 93% 29.90 in 7.0 mi Calm Calm - N/A   Clear
7:15 AM 35.6 °F - 33.8 °F 93% 29.90 in 5.0 mi Calm Calm - N/A   Clear
7:35 AM 35.6 °F - 33.8 °F 93% 29.90 in 5.0 mi Calm Calm - N/A   Clear
7:55 AM 37.4 °F - 35.6 °F 93% 29.90 in 10.0 mi Calm Calm - N/A   Clear
8:15 AM 39.2 °F - 35.6 °F 87% 29.90 in 10.0 mi Calm Calm - N/A   Clear
8:35 AM 44.6 °F 42.2 °F 41.0 °F 87% 29.90 in 10.0 mi South 4.6 mph - N/A   Clear
8:55 AM 44.6 °F 40.7 °F 37.4 °F 76% 29.91 in 10.0 mi South 6.9 mph - N/A   Clear
9:15 AM 46.4 °F 42.4 °F 39.2 °F 76% 29.91 in 10.0 mi SSE 8.1 mph - N/A   Clear
9:35 AM 50.0 °F - 39.2 °F 66% 29.92 in 10.0 mi SSE 6.9 mph - N/A   Clear
9:55 AM 53.6 °F - 39.2 °F 58% 29.92 in 10.0 mi South 6.9 mph - N/A   Clear
10:15 AM 55.4 °F - 37.4 °F 51% 29.92 in 10.0 mi South 8.1 mph - N/A   Clear
10:35 AM 59.0 °F - 37.4 °F 45% 29.92 in 10.0 mi South 6.9 mph - N/A   Clear
10:55 AM 60.8 °F - 37.4 °F 42% 29.92 in 10.0 mi South 8.1 mph - N/A   Clear
11:15 AM 64.4 °F - 41.0 °F 42% 29.91 in 10.0 mi SSW 9.2 mph - N/A   Clear
11:35 AM 64.4 °F - 37.4 °F 37% 29.91 in 10.0 mi South 8.1 mph - N/A   Clear
11:55 AM 68.0 °F - 35.6 °F 30% 29.90 in 10.0 mi South 10.4 mph - N/A   Clear
12:15 PM 69.8 °F - 35.6 °F 28% 29.88 in 10.0 mi South 8.1 mph - N/A   Clear
12:35 PM 69.8 °F - 32.0 °F 25% 29.87 in 10.0 mi SSW 10.4 mph - N/A   Clear
12:55 PM 71.6 °F - 32.0 °F 23% 29.87 in 10.0 mi SSW 12.7 mph 17.3 mph N/A   Clear
1:15 PM 71.6 °F - 32.0 °F 23% 29.86 in 10.0 mi SSW 6.9 mph - N/A   Clear
1:35 PM 71.6 °F - 32.0 °F 23% 29.85 in 10.0 mi South 10.4 mph - N/A   Clear
1:55 PM 71.6 °F - 32.0 °F 23% 29.85 in 10.0 mi South 12.7 mph 19.6 mph N/A   Clear
2:15 PM 73.4 °F - 33.8 °F 23% 29.84 in 10.0 mi South 10.4 mph 17.3 mph N/A   Clear
2:35 PM 75.2 °F - 33.8 °F 22% 29.84 in 10.0 mi SSW 12.7 mph - N/A   Clear
2:55 PM 73.4 °F - 33.8 °F 23% 29.83 in 10.0 mi SSW 12.7 mph 20.7 mph N/A   Clear
3:15 PM 73.4 °F - 33.8 °F 23% 29.83 in 10.0 mi South 11.5 mph 20.7 mph N/A   Clear
3:35 PM 71.6 °F - 33.8 °F 25% 29.82 in 10.0 mi South 12.7 mph 19.6 mph N/A   Clear
3:55 PM 71.6 °F - 35.6 °F 27% 29.82 in 10.0 mi South 12.7 mph 17.3 mph N/A   Clear
4:15 PM 71.6 °F - 33.8 °F 25% 29.82 in 10.0 mi South 11.5 mph - N/A   Clear
4:35 PM 71.6 °F - 35.6 °F 27% 29.82 in 10.0 mi South 8.1 mph 16.1 mph N/A   Clear
4:55 PM 69.8 °F - 35.6 °F 28% 29.83 in 10.0 mi South 8.1 mph - N/A   Clear
5:15 PM 69.8 °F - 37.4 °F 31% 29.83 in 10.0 mi South 6.9 mph - N/A   Clear
5:35 PM 66.2 °F - 37.4 °F 35% 29.84 in 10.0 mi South 4.6 mph - N/A   Clear
5:55 PM 64.4 °F - 41.0 °F 42% 29.84 in 10.0 mi Calm Calm - N/A   Clear
6:15 PM 59.0 °F - 41.0 °F 51% 29.85 in 10.0 mi Calm Calm - N/A   Clear
6:35 PM 57.2 °F - 41.0 °F 55% 29.85 in 10.0 mi Calm Calm - N/A   Clear
6:55 PM 55.4 °F - 41.0 °F 58% 29.85 in 10.0 mi Calm Calm - N/A   Clear
7:15 PM 55.4 °F - 42.8 °F 63% 29.85 in 10.0 mi Calm Calm - N/A   Clear
7:35 PM 55.4 °F - 42.8 °F 63% 29.86 in 10.0 mi Calm Calm - N/A   Clear
7:55 PM 51.8 °F - 41.0 °F 67% 29.86 in 10.0 mi SE 3.5 mph - N/A   Clear
8:15 PM 51.8 °F - 42.8 °F 71% 29.86 in 10.0 mi SE 3.5 mph - N/A   Clear
8:35 PM 53.6 °F - 42.8 °F 67% 29.86 in 10.0 mi SE 4.6 mph - N/A   Clear
8:55 PM 55.4 °F - 41.0 °F 58% 29.86 in 10.0 mi Calm Calm - N/A   Clear
9:15 PM 55.4 °F - 42.8 °F 63% 29.86 in 10.0 mi SSE 5.8 mph - N/A   Clear
9:35 PM 57.2 °F - 44.6 °F 63% 29.87 in 10.0 mi South 6.9 mph - N/A   Clear
9:55 PM 57.2 °F - 46.4 °F 67% 29.88 in 10.0 mi South 5.8 mph - N/A   Clear
10:15 PM 57.2 °F - 46.4 °F 67% 29.88 in 10.0 mi SSE 6.9 mph - N/A   Clear
10:35 PM 55.4 °F - 48.2 °F 77% 29.88 in 10.0 mi SSE 5.8 mph - N/A   Clear
10:55 PM 55.4 °F - 48.2 °F 77% 29.88 in 10.0 mi SSE 4.6 mph - N/A   Clear
11:15 PM 55.4 °F - 50.0 °F 82% 29.88 in 10.0 mi South 5.8 mph - N/A   Clear
11:35 PM 55.4 °F - 50.0 °F 82% 29.88 in 10.0 mi SSE 5.8 mph - N/A   Clear
11:55 PM 55.4 °F - 50.0 °F 82% 29.88 in 10.0 mi SSE 5.8 mph - N/A   Clear